Вернуться в каталог

STARLINK-32637

АктивенСвязьVLEO
NORAD 62032·PAYLOAD·🇺🇸 United States

Запущен Nov 21, 2024 с Cape Canaveral Space Force Station

Loading…

Ближайшие Пролёты (ближайшие 24 часа)

TLE

СвежийSource: CelesTrak SupGP

Эпоха: Sep 15, 2026, 03:13 UTC

1 62032C 24216A   26258.13451389 -.00019019  00000+0 -68894-3 0  2582
2 62032  43.0018 266.0500 0001308 265.5524  82.1497 15.27583504    13

Отслеживайте STARLINK-32637 в реальном времени с AllMySat

Download on the App Store